Regional Weather Roundup
Issued by NWS

Home | Current Version | Previous Version | Text Only | Print | Product List | Glossary Off
Versions: 1 2 3 4 5 6 7 8 9 10 11 12 13 14 15 16 17 18 19 20 21 22 23 24 25 26 27 28 29 30 31 32 33 34 35 36 37 38 39 40 41 42 43 44 45 46 47 48 49 50

000
ASUS43 KDMX 231806
RWRIA

WEATHER ROUNDUP FOR IOWA
NATIONAL WEATHER SERVICE DES MOINES IA
100 PM CDT FRI JUN 23 2017

NOTE: "FAIR" INDICATES FEW OR NO CLOUDS BELOW 12,000 FEET WITH NO
SIGNIFICANT WEATHER AND/OR OBSTRUCTIONS TO VISIBILITY.

* - THESE STATIONS ARE NOT NWS STATIONS...THUS NOT UNDER NWS
QUALITY CONTROL.  THEY ALSO DO NOT REPORT WEATHER SUCH
AS PRECIPITATION OR FOG.

IAZ001>003-012>014-020>022-031>034-043>046-231900-
   NORTHWEST IOWA

CITY           SKY/WX    TMP DP  RH WIND       PRES   REMARKS
CARROLL *      CLOUDY    68  52  56 NW16G23   29.95F
CHEROKEE *     PTSUNNY   65  52  63 NW20G28   29.98R
DENISON *      CLOUDY    68  52  56 NW21G28   29.99F
LE MARS *      CLOUDY    66  50  55 NW21      30.01S
ORANGE CITY *  CLOUDY    64  52  63 NW18G26   29.99S
SHELDON *      CLOUDY    63  50  63 NW18G29   29.97R
SIOUX CITY     CLOUDY    70  52  52 N24G35    29.99F
SPENCER        CLOUDY    66  52  60 NW17G29   29.94F
6HR MIN TEMP:  58; 6HR MAX TEMP:  68;

STORM LAKE *   CLOUDY    66  52  59 NW22G29   29.96F
$$

IAZ055>058-069>071-079>083-090>094-231900-
   SOUTHWEST IOWA

CITY           SKY/WX    TMP DP  RH WIND       PRES   REMARKS
ATLANTIC *     PTSUNNY   68  54  60 NW13G20   29.97F
AUDUBON *      LGT RAIN  64  54  68 NW9G18    29.98S
CLARINDA *     CLOUDY    70  54  56 NW21G28   30.02R
COUNCIL BLFS * CLOUDY    66  52  59 NW13      30.01S
CRESTON *      PTSUNNY   70  52  52 NW23G36   29.99R
HARLAN  *      PTSUNNY   66  52  59 NW16G22   30.01F
LAMONI         MOSUNNY   79  51  37 NW18G26   29.92R
6HR MIN TEMP:  66; 6HR MAX TEMP:  79;

RED OAK *      CLOUDY    66  54  63 NW13G20   29.99F
SHENANDOAH *   CLOUDY    68  54  60 N14       30.01F
$$

IAZ047>049-059>061-072>074-084-231900-
   CENTRAL IOWA

CITY           SKY/WX    TMP DP  RH WIND       PRES   REMARKS
AMES           PTSUNNY   73  54  51 NW21G30   29.91R
6HR MIN TEMP:  63; 6HR MAX TEMP:  75;

ANKENY *       PTSUNNY   75  54  46 NW18G29   29.90R
BOONE *        MOSUNNY   70  52  52 NW23G31   29.91R
CHARITON *     SUNNY     79  50  36 NW17G24   29.88S
DES MOINES     CLOUDY    76  51  41 NW23G32   29.89R
6HR MIN TEMP:  65; 6HR MAX TEMP:  78; 6HR PCP: TRACE;

GRINNELL*      MOSUNNY   74  54  50 NW17      29.87R
KNOXVILLE *    MOSUNNY   77  52  41 NW22      29.86R
MARSHALLTOWN   MOSUNNY   73  56  54 NW20G31   29.87R
6HR MIN TEMP:  62; 6HR MAX TEMP:  75;

NEWTON *       SUNNY     73  52  46 NW18      29.88R
PELLA *        MOSUNNY   78  51  39 NW16G24   29.87R
PERRY *          N/A     73  53  50 NW16G24   29.92S
$$

IAZ004>006-015-016-023>025-035-036-231900-
   NORTH CENTRAL IOWA

CITY           SKY/WX    TMP DP  RH WIND       PRES   REMARKS
ALGONA *       CLOUDY    68  54  60 NW20G26   29.92R
CLARION *        N/A     68  55  64 NW21G29   29.90R
ESTHERVILLE    CLOUDY    64  54  69 NW21G29   29.92S
6HR MIN TEMP:  58; 6HR MAX TEMP:  65;

FORT DODGE *   PTSUNNY   70  52  52 NW14G20   29.93S
MASON CITY     CLOUDY    67  53  61 NW20G28   29.89S
6HR MIN TEMP:  61; 6HR MAX TEMP:  69;

FOREST CITY *  CLOUDY    68  46  45 NW20G28   29.88R
WEBSTER CITY * PTSUNNY   70  54  56 NW21G32   29.90R
IOWA FALLS *   PTSUNNY   71  55  58 NW21G29   29.89S
$$

IAZ007>011-017>019-026>030-037>042-050>054-066-231900-
   NORTHEAST IOWA

CITY           SKY/WX    TMP DP  RH WIND       PRES   REMARKS
CEDAR RAPIDS   MOSUNNY   79  59  50 NW20G28   29.79F HX  80
6HR MIN TEMP:  65; 6HR MAX TEMP:  79;

CHARLES CITY * PTSUNNY   68  54  60 NW17G24   29.85S
CLINTON *      SUNNY     78  60  53 NW12      29.77S
DECORAH *      PTSUNNY   68  54  60 NW15G26   29.80R
DUBUQUE        MOSUNNY   78  54  43 W20       29.77F
6HR MIN TEMP:  63; 6HR MAX TEMP:  78;

MONTICELLO *   MOSUNNY   77  55  47 W16       29.77F
OELWEIN *      SUNNY     72  55  56 W21G31    29.83R
WATERLOO       MOSUNNY   73  54  51 NW18G26   29.82R
6HR MIN TEMP:  63; 6HR MAX TEMP:  75;

$$

IAZ064-065-067-068-078-231900-
   EAST CENTRAL IOWA

CITY           SKY/WX    TMP DP  RH WIND       PRES   REMARKS
DAVENPORT      SUNNY     78  59  51 W15       29.78S
6HR MIN TEMP:  66; 6HR MAX TEMP:  78;

IOWA CITY      SUNNY     82  54  37 W13G23    29.80F HX  81
6HR MIN TEMP:  69; 6HR MAX TEMP:  82;

MT. PLEASANT * SUNNY     79  55  42 NW12G20   29.81F HX  80
MUSCATINE *    MOSUNNY   82  55  39 NW15G22   29.79S HX  82
QUAD CITIES    SUNNY     81  58  45 W14       29.77S HX  81
6HR MIN TEMP:  69; 6HR MAX TEMP:  82;

$$

IAZ062-063-075>077-085>089-095>099-231900-
   SOUTHEAST IOWA

CITY           SKY/WX    TMP DP  RH WIND       PRES   REMARKS
BURLINGTON     MOSUNNY   80  58  46 N12       29.80R HX  80
6HR MIN TEMP:  69; 6HR MAX TEMP:  81; 6HR PCP: TRACE;

FAIRFIELD *    MOSUNNY   81  54  39 W14       29.82S HX  80
FORT MADISON * SUNNY     81  57  44 NW9G18    29.82S HX  81
KEOKUK *       SUNNY     81  57  44 NW10G17   29.80F HX  81
OSKALOOSA *      N/A     80  55  43 W18       29.84S HX  80
CENTERVILLE *    N/A     79  57  47 W16       29.88S HX  80
OTTUMWA        MOSUNNY   81  54  39 W14       29.83F HX  81
6HR MIN TEMP:  68; 6HR MAX TEMP:  82;

WASHINGTON *   MOSUNNY   81  55  41 NW18G25   29.82F HX  80
$$

ABBREVIATIONS USED IN REMARKS
   TC - TEMPERATURES IN CELSIUS
  WCI - WIND CHILL INDEX
   HX - HEAT INDEX
  VSB - VISIBILITY
$$





USA.gov is the U.S. government's official web portal to all federal, state and local government web resources and services.